Flag for U.S.A. Weather past 2 weeks in Houston, Texas, U.S.A.

Now
36 °F

Clear.


Feels Like: 28 °F
Forecast: 35 / 54 °F
Wind: 12 mph from Northeast

Location: Houston Hobby Airport

Current Time: Mar 6, 2015 at 4:06:37 AM

Latest Report: Mar 6, 2015 at 2:53 AM


Visibility: 10 mi

Pressure: 30.56 "Hg

Humidity: 62%

Dew point: 24 °F

Location of HoustonLocation

Historic Weather in Houston — Graph

°F

Houston temperature yesterday

Maximum temperature yesterday: 50 °F (at 4:53 PM)
Minimum temperature yesterday: 39 °F (at 9:53 AM)
Average temperature yesterday: 43 °F

Past Weeks' High & Low Weather Summary

 TemperatureHumidityPressure
High81 °F (Mar 4, 12:53 PM)100% (Feb 22, 5:53 AM)30.57 "Hg (Feb 22, 5:53 AM)
Low34 °F (Feb 24, 5:53 AM)41% (Mar 5, 5:53 PM)29.81 "Hg (Mar 4, 5:53 PM)
Average53 °F82%30.15 "Hg
* Reported Feb 19 2:53 AM — Mar 6 2:53 AM, Houston, Weather by CustomWeather, © 2015

Note: Actual official high and low records may vary slightly from our data, if they occured in-between our weather recording intervals... More about our weather records

Advertising

Houston weather history for previous 24 hours

 ConditionsComfort  
Time TempWeatherWind HumidityBarometerVisibility
2:53 AM
Fri, Mar 6
36 °FClear.12 mph62%30.56 "Hg10 mi
1:53 AM37 °FPassing clouds.12 mph57%30.56 "Hg10 mi
12:53 AM38 °FPassing clouds.13 mph53%30.57 "Hg10 mi
11:53 PM
Thu, Mar 5
39 °FPassing clouds.17 mph50%30.57 "Hg10 mi
10:53 PM40 °FPassing clouds.16 mph49%30.57 "Hg10 mi
9:53 PM42 °FPassing clouds.13 mph45%30.57 "Hg10 mi
8:53 PM43 °FPassing clouds.16 mph51%30.55 "Hg10 mi
7:53 PM45 °FPassing clouds.15 mph48%30.52 "Hg10 mi
6:53 PM46 °FPassing clouds.13 mph46%30.48 "Hg10 mi
5:53 PM48 °FScattered clouds.18 mph41%30.46 "Hg10 mi
4:53 PM50 °FScattered clouds.17 mph44%30.44 "Hg10 mi
3:53 PM49 °FScattered clouds.17 mph52%30.42 "Hg10 mi
2:53 PM48 °FBroken clouds.20 mph59%30.42 "Hg10 mi
1:53 PM46 °FBroken clouds.20 mph63%30.42 "Hg10 mi
12:53 PM44 °FBroken clouds.22 mph68%30.43 "Hg10 mi
11:53 AM40 °FOvercast.21 mph80%30.45 "Hg10 mi
10:53 AM39 °FOvercast.20 mph86%30.43 "Hg10 mi
9:53 AM39 °FOvercast.22 mph86%30.42 "Hg10 mi
8:53 AM40 °FMostly cloudy.20 mph83%30.39 "Hg10 mi
7:53 AM40 °FOvercast.24 mph86%30.33 "Hg10 mi
6:53 AM41 °FOvercast.21 mph86%30.28 "Hg10 mi
5:53 AM41 °FLight rain. Mostly cloudy.18 mph89%30.23 "Hg10 mi
4:53 AM42 °FLight rain. Overcast.20 mph89%30.19 "Hg9 mi
4:04 AM41 °FThunderstorms. Fog.23 mph87%30.14 "Hg6 mi
Weather by CustomWeather, © 2015

See weather overviewHow to use our weather pages